COSMOS 2341

导读

COSMOS 2341是独联体(CIS)继承苏联航天体系后,于1997年4月17日发射入轨的军用卫星,隶属于苏联/俄罗斯“宇宙”(Cosmos)系列卫星。该系列卫星多承担军事侦察、雷达校准等涉密任务,统一命名便于保密。COSMOS 2341运行在近千公里的近地轨道,轨道倾角约82.9°,至今仍在轨运行,是冷战后独联体航天活动的典型产物。

Basic Information
目录编号:
24772
目录名称:
COSMOS 2341
国际标识:
1997-017A
轨道中心:
EARTH
卫星名称:
COSMOS 2341
卫星全名:
--
卫星状态:
在轨 (已飞行10743 天)
发射日期:
1997-04-17 UTC
国别 :
俄罗斯(独联体) (CIS)
星等 :
--
This satellite is enrolled in the Space Conjunction Data Service (SCDS) and the current flight risk assessment level is: No High Risk
Orbit Information
数据来源 国际轨道数据 AOE轨道数据
星历时间 2026-09-15T17:47:50+0800
12小时前
查看轨道信息
2026-09-15T09:00:00+0800
21小时前
查看轨道信息
半长轴 7371.856km 7371.853km
偏心率 0.0025838 0.0025903
轨道倾角 82.920° 82.921°
近地点辐角 14.887° 16.004°
升交点赤经 58.208° 58.478°
平近点角 12.812° 2.724°
近地点 974.671km 974.62km
远地点 1012.767km 1012.812km
周期 104.984分钟 104.984分钟
每日圈数 13.716317 13.716325
Detailed Information
使用方式:
暂无
2D Orbit Map
3D Orbit Map
Orbit Altitude Analysis Chart
Orbit Inclination Analysis Chart
Orbit Comprehensive Analysis Chart
View Comprehensive Chart
Miss Distance Evolution Trend with All Objects Subscribe to Flight Safety Assessment
Collision Probability Evolution Trend with All Objects Subscribe to Flight Safety Assessment